カタログに戻る

STARLINK-31730

運用中通信VLEO
NORAD 59555·PAYLOAD·🇺🇸 United States

打ち上げ Apr 18, 2024 から Cape Canaveral Space Force Station

Loading…

次のパス (今後24時間)

TLE

最新Source: CelesTrak SupGP

元期: Sep 15, 2026, 03:15 UTC

1 59555C 24074X   26258.13590278  .00049704  00000+0  17998-2 0  2581
2 59555  43.0042 353.9935 0001668 262.9800  88.1196 15.27561664    16

AllMySatでSTARLINK-31730をリアルタイム追跡

Download on the App Store